Weather reports worldwide

Advertisment
Caceres, Spain (8261): temperature & dewpoint: 03.08.2020 22:00:00 - 09.08.2020 22:00:00 (CEST)Caceres, Spain (8261): wind speed: 03.08.2020 22:00:00 - 09.08.2020 22:00:00 (CEST)Caceres, Spain (8261): wind direction: 03.08.2020 22:00:00 - 09.08.2020 22:00:00 (CEST)Caceres, Spain (8261): reduced air pressure: 03.08.2020 22:00:00 - 09.08.2020 22:00:00 (CEST)Caceres, Spain (8261): visibility: 03.08.2020 22:00:00 - 09.08.2020 22:00:00 (CEST)Caceres, Spain (8261): precipitation: 03.08.2020 22:00:00 - 09.08.2020 22:00:00 (CEST)
Date & Time tt [°C] td [°C] ff [km/h] ff [kn] dd ppp [hPa] vv [km] rr [mm]
09.08.2020 22:00:00 - - - - - - - -
09.08.2020 21:00:00 32,2 8,4 13 7 W 1009,8 20 0,0
09.08.2020 20:00:00 33,9 9,2 13 7 WSW 1009,5 20 -
09.08.2020 19:00:00 36,0 8,7 15 8 WSW 1009,5 20 0,0
09.08.2020 18:00:00 36,5 9,2 13 7 SW 1009,8 20 0,0
09.08.2020 17:00:00 36,7 9,3 13 7 WSW 1010,3 20 -
09.08.2020 16:00:00 36,0 9,5 15 8 SW 1011,0 20 0,0
09.08.2020 15:00:00 35,7 10,0 9 5 SSW 1011,7 20 0,0
09.08.2020 14:00:00 34,7 9,9 18 10 SW 1012,5 20 -
09.08.2020 13:00:00 33,9 10,5 13 7 SSW 1013,2 20 0,0
09.08.2020 12:00:00 33,0 10,9 9 5 SW 1013,6 20 0,0
09.08.2020 11:00:00 31,4 10,1 11 6 SW 1013,8 20 -
09.08.2020 10:00:00 27,9 11,4 5 3 NNE 1014,5 20 0,0
09.08.2020 09:00:00 25,5 10,1 2 1 E 1015,0 20 0,0
09.08.2020 08:00:00 21,7 9,9 2 1 S 1015,5 20 -
09.08.2020 07:00:00 21,6 9,5 2 1 SSE 1015,3 20 0,0
09.08.2020 06:00:00 22,6 9,0 4 2 SSW 1014,8 20 0,0
09.08.2020 05:00:00 23,6 8,8 8 4 SSW 1014,9 20 -
09.08.2020 04:00:00 23,1 10,5 4 2 SW 1015,2 20 0,0
09.08.2020 03:00:00 24,8 11,0 4 2 WSW 1015,1 20 0,0
09.08.2020 02:00:00 26,2 11,1 5 3 WNW 1015,1 20 -
09.08.2020 01:00:00 27,3 11,7 5 3 WNW 1015,1 20 0,0
09.08.2020 00:00:00 28,7 12,6 9 5 NW 1014,9 20 0,0
08.08.2020 23:00:00 30,7 12,6 13 7 W 1014,3 20 -
08.08.2020 22:00:00 32,3 13,0 9 5 SSW 1013,2 20 0,0
08.08.2020 21:00:00 33,8 13,3 13 7 WSW 1012,7 20 0,0
08.08.2020 20:00:00 35,4 13,0 11 6 WSW 1012,6 20 -
08.08.2020 19:00:00 36,0 12,9 15 8 WSW 1012,8 20 0,0
08.08.2020 18:00:00 35,8 12,7 9 5 W 1013,4 20 0,0
08.08.2020 17:00:00 34,9 12,5 11 6 SW 1014,2 20 -
08.08.2020 16:00:00 34,5 12,2 16 9 WSW 1014,8 20 0,0
08.08.2020 15:00:00 34,0 12,9 16 9 WSW 1015,3 20 0,0
08.08.2020 14:00:00 31,7 12,5 9 5 E 1015,3 20 -
08.08.2020 13:00:00 34,0 11,8 8 4 E 1015,5 20 0,0
08.08.2020 12:00:00 32,3 12,5 9 5 S 1016,9 19 0,0
08.08.2020 11:00:00 28,9 16,1 13 7 S 1017,6 20 -
08.08.2020 10:00:00 28,6 16,5 4 2 N 1017,3 19 0,0
08.08.2020 09:00:00 25,7 16,3 13 7 S 1017,3 19 0,0
08.08.2020 08:00:00 25,8 15,8 13 7 SSW 1017,4 20 -
08.08.2020 07:00:00 25,7 15,7 13 7 SW 1016,5 20 0,0
08.08.2020 06:00:00 26,4 16,0 16 9 SW 1016,1 20 0,0
08.08.2020 05:00:00 26,5 15,8 18 10 SSW 1016,3 20 -
08.08.2020 04:00:00 27,3 16,0 21 11 SW 1016,2 20 0,0
08.08.2020 03:00:00 27,8 15,8 22 12 SW 1016,2 20 0,0
08.08.2020 02:00:00 28,7 15,6 24 13 SW 1015,9 20 -
08.08.2020 01:00:00 29,1 14,9 26 14 SW 1015,8 20 0,0
08.08.2020 00:00:00 30,5 13,7 22 12 SW 1014,8 20 0,0
07.08.2020 23:00:00 31,9 11,7 13 7 SW 1014,5 20 -
07.08.2020 22:00:00 32,7 11,3 13 7 WSW 1013,4 20 0,0
07.08.2020 21:00:00 35,2 10,9 11 6 WSW 1012,5 20 0,0
07.08.2020 20:00:00 36,8 10,9 11 6 WSW 1012,1 20 -
07.08.2020 19:00:00 37,4 10,7 9 5 W 1012,1 20 0,0
07.08.2020 18:00:00 37,6 10,0 16 9 SSW 1012,3 20 0,0
07.08.2020 17:00:00 37,9 10,3 11 6 SSW 1012,7 20 -
07.08.2020 16:00:00 37,5 10,7 8 4 WNW 1013,0 20 0,0
07.08.2020 15:00:00 36,3 11,9 8 4 NNW 1013,5 19 0,0
07.08.2020 14:00:00 35,4 11,1 13 7 SSW 1014,3 15 -
07.08.2020 13:00:00 34,0 12,4 5 3 SW 1014,7 20 0,0
07.08.2020 12:00:00 32,6 12,8 8 4 WSW 1015,2 20 0,0
07.08.2020 11:00:00 29,8 13,1 21 11 SW 1015,4 20 -
07.08.2020 10:00:00 27,6 12,8 22 12 SW 1015,3 20 0,0
07.08.2020 09:00:00 26,5 12,9 22 12 SW 1015,0 20 0,0
07.08.2020 08:00:00 26,4 11,3 22 12 SW 1014,5 10 -
07.08.2020 07:00:00 25,5 13,4 22 12 SW 1014,3 20 0,0
07.08.2020 06:00:00 26,2 14,0 16 9 SSW 1013,8 20 0,0
07.08.2020 05:00:00 26,4 13,5 11 6 SSW 1013,4 20 -
07.08.2020 04:00:00 27,9 13,0 13 7 SW 1012,9 20 0,0
07.08.2020 03:00:00 28,2 14,4 18 10 WSW 1012,9 20 0,0
07.08.2020 02:00:00 28,8 14,2 16 9 WSW 1012,4 20 -
07.08.2020 01:00:00 30,9 12,8 18 10 WSW 1011,6 20 0,0
07.08.2020 00:00:00 32,5 11,6 21 11 SW 1011,0 20 0,0
06.08.2020 23:00:00 33,3 11,8 11 6 SW 1010,4 20 -
06.08.2020 22:00:00 32,6 11,7 11 6 WSW 1009,6 20 0,0
06.08.2020 21:00:00 37,1 9,6 5 3 SW 1008,4 20 0,0
06.08.2020 20:00:00 38,6 9,2 11 6 WSW 1008,0 20 -
06.08.2020 19:00:00 39,3 9,8 11 6 SSE 1007,8 20 0,0
06.08.2020 18:00:00 39,2 10,5 8 4 SW 1008,1 20 0,0
06.08.2020 17:00:00 38,8 11,0 9 5 WSW 1008,5 20 -
06.08.2020 16:00:00 37,8 11,0 15 8 SSW 1009,3 20 0,0
06.08.2020 15:00:00 37,6 12,3 9 5 SE 1009,6 20 0,0
06.08.2020 14:00:00 36,4 12,6 13 7 SSE 1010,1 15 -
06.08.2020 13:00:00 34,9 13,1 13 7 SSW 1010,5 20 0,0
06.08.2020 12:00:00 34,3 13,2 15 8 SSW 1010,5 20 0,0
06.08.2020 11:00:00 33,0 13,1 8 4 SSE 1010,6 10 -
06.08.2020 10:00:00 30,3 12,7 8 4 N 1010,9 20 0,0
06.08.2020 09:00:00 27,7 12,1 28 15 S 1010,5 20 0,0
06.08.2020 08:00:00 26,3 11,6 31 17 S 1010,2 12 -
06.08.2020 07:00:00 27,5 11,5 26 14 S 1009,5 20 0,0
06.08.2020 06:00:00 27,6 11,2 22 12 S 1009,2 20 0,0
06.08.2020 05:00:00 25,1 10,5 4 2 S 1009,5 20 -
06.08.2020 04:00:00 25,9 11,3 4 2 S 1009,2 20 0,0
06.08.2020 03:00:00 28,7 11,3 9 5 SSW 1008,9 20 0,0
06.08.2020 02:00:00 29,6 11,2 11 6 S 1008,8 20 -
06.08.2020 01:00:00 28,3 10,9 9 5 SSW 1009,0 20 0,0
06.08.2020 00:00:00 28,4 11,0 8 4 SSW 1008,9 20 0,0
05.08.2020 23:00:00 29,5 9,1 4 2 S 1008,7 19 -
05.08.2020 22:00:00 31,4 8,4 8 4 S 1007,9 20 0,0
05.08.2020 21:00:00 36,7 8,5 4 2 NW 1006,6 20 0,0
05.08.2020 20:00:00 37,7 6,6 9 5 NW 1006,3 20 -
05.08.2020 19:00:00 38,1 7,0 8 4 NNE 1006,3 20 0,0
05.08.2020 18:00:00 38,2 7,0 9 5 NNE 1006,6 20 0,0
05.08.2020 17:00:00 37,8 7,7 11 6 NNW 1007,0 20 -
05.08.2020 16:00:00 37,3 7,3 15 8 N 1007,6 20 0,0
05.08.2020 15:00:00 37,5 8,3 8 4 ESE 1008,1 20 0,0
05.08.2020 14:00:00 36,1 7,2 8 4 NW 1008,8 24 -
05.08.2020 13:00:00 35,5 8,3 4 2 E 1009,4 19 0,0
05.08.2020 12:00:00 33,3 8,0 5 3 ENE 1010,1 20 0,0
05.08.2020 11:00:00 30,1 8,5 4 2 E 1010,6 30 -
05.08.2020 10:00:00 27,6 8,5 4 2 NE 1011,0 20 0,0
05.08.2020 09:00:00 24,6 8,1 2 1 NW 1011,1 11 0,0
05.08.2020 08:00:00 20,5 8,2 2 1 E 1011,4 27 -
05.08.2020 07:00:00 20,3 8,3 4 2 W 1011,2 1,2 0,0
05.08.2020 06:00:00 21,6 7,4 5 3 SW 1010,7 20 0,0
05.08.2020 05:00:00 22,5 7,8 5 3 SW 1010,7 20 -
05.08.2020 04:00:00 23,5 8,4 5 3 SW 1010,6 20 0,0
05.08.2020 03:00:00 24,5 8,4 8 4 WSW 1010,8 20 0,0
05.08.2020 02:00:00 25,6 6,7 8 4 W 1010,9 20 -
05.08.2020 01:00:00 25,1 6,8 8 4 SW 1010,7 20 0,0
05.08.2020 00:00:00 25,9 7,5 9 5 SSW 1010,5 20 0,0
04.08.2020 23:00:00 27,5 7,4 5 3 SW 1010,4 20 -
04.08.2020 22:00:00 30,4 8,2 4 2 SW 1009,4 20 0,0
04.08.2020 21:00:00 34,1 7,2 9 5 N 1008,8 20 0,0
04.08.2020 20:00:00 35,2 7,3 11 6 NNW 1008,3 20 -
04.08.2020 19:00:00 35,5 7,5 11 6 NNW 1008,5 20 0,0
04.08.2020 18:00:00 36,0 7,9 9 5 NW 1008,7 20 0,0
04.08.2020 17:00:00 35,6 8,4 11 6 N 1009,2 20 -
04.08.2020 16:00:00 35,6 8,4 8 4 WSW 1009,6 20 0,0
04.08.2020 15:00:00 34,5 8,3 9 5 NE 1010,5 20 0,0
04.08.2020 14:00:00 33,3 8,7 9 5 ENE 1011,4 30 -
04.08.2020 13:00:00 31,9 8,8 9 5 ENE 1012,0 20 0,0
04.08.2020 12:00:00 30,5 8,8 9 5 NNE 1012,3 20 0,0
04.08.2020 11:00:00 28,5 8,7 9 5 ENE 1012,6 20 -
04.08.2020 10:00:00 25,7 8,7 5 3 ENE 1013,2 20 0,0
04.08.2020 09:00:00 24,2 9,0 2 1 ENE 1013,2 17 0,0
04.08.2020 08:00:00 20,0 11,0 4 2 SSW 1013,4 40 -
04.08.2020 07:00:00 20,6 12,8 4 2 WSW 1013,0 20 0,0
04.08.2020 06:00:00 20,8 12,7 4 2 W 1012,9 20 0,0
04.08.2020 05:00:00 21,7 13,1 5 3 WSW 1012,7 20 -
04.08.2020 04:00:00 23,1 13,6 5 3 W 1012,6 20 0,0
04.08.2020 03:00:00 24,1 13,9 9 5 WNW 1012,8 20 0,0
04.08.2020 02:00:00 24,8 14,0 13 7 WNW 1012,8 20 -
04.08.2020 01:00:00 26,0 12,1 15 8 WNW 1012,5 20 0,0
04.08.2020 00:00:00 27,5 7,4 9 5 WNW 1012,1 20 0,0
03.08.2020 23:00:00 28,0 8,3 9 5 WNW 1011,7 20 -
03.08.2020 22:00:00 28,7 8,9 5 3 W 1010,9 20 0,0

tt = temperature
td = dewpoint
ff = wind speed
dd = wind direction
ppp = reduced air pressure
vv = visibility
rr = precipitation

Next stations